QPF
0.00 0.00 0.00 0.00 0.00 0.00 0.00 0.00 0.00 0.00 0.00 0.00 0.00 0.00 0.00 0.00 0.00 0.00 0.00 0.00 0.00 0.00 0.00 0.00 0.00 0.00 0.00 0.00 0.00 0.00 0.00 0.00 0.00 0.00 0.00 0.00 0.00 0.00 0.00 0.00 0.00 0.00 0.00
0.00 0.00 0.00 0.00 0.00 0.00 0.00 0.00 0.00 0.00 0.00 0.00 0.00 0.00 0.00 0.00 0.00 0.00 0.00 0.00 0.00 0.00 0.00 0.00 0.00 0.00 0.00 0.00 0.00 0.00 0.00 0.00 0.00 0.00 0.00 0.00 0.00 0.00 0.00 0.00 0.00 0.00 0.00
0.00 0.00 0.00 0.00 0.00 0.00 0.00 0.00 0.00 0.00 0.00 0.00 0.00 0.00 0.00 0.00 0.00 0.00 0.00 0.00 0.00 0.00 0.00 0.00 0.00 0.00 0.00 0.00 0.00 0.00 0.00 0.00 0.00 0.00 0.00 0.00 0.00 0.00 0.00 0.00 0.00 0.00 0.00
0.00 0.00 0.00 0.00 0.00 0.00 0.00 0.00 0.00 0.00 0.00 0.00 0.00 0.00 0.00 0.00 0.00 0.00 0.00 0.00 0.00 0.00 0.00 0.00 0.00 0.00 0.00 0.00 0.00 0.00 0.00 0.00 0.00 0.00 0.00 0.00 0.00 0.00 0.00 0.00 0.00 0.00 0.00
0.00 0.00 0.00 0.00 0.00 0.00 0.00 0.00 0.00 0.00 0.00 0.00 0.00 0.00 0.00 0.00 0.00 0.00 0.00 0.00 0.00 0.00 0.00 0.00 0.00 0.00 0.00 0.00 0.00 0.00 0.00 0.00 0.00 0.00 0.00 0.00 0.00 0.00 0.00 0.00 0.00 0.00 0.00
0.00 0.00 0.00 0.00 0.00 0.00 0.00 0.00 0.00 0.00 0.00 0.00 0.00 0.00 0.00 0.00 0.00 0.00 0.00 0.00 0.00 0.00 0.00 0.00 0.00 0.00 0.00 0.00 0.00 0.00 0.00 0.00 0.00 0.00 0.00 0.00 0.00 0.00 0.00 0.00 0.00 0.00 0.00
0.00 0.00 0.00 0.00 0.00 0.00 0.00 0.00 0.00 0.00 0.00 0.00 0.00 0.00 0.00 0.00 0.00 0.00 0.00 0.00 0.00 0.00 0.00 0.00 0.00 0.00 0.00 0.00 0.00 0.00 0.00 0.00 0.00 0.00 0.00 0.00 0.00 0.00 0.00 0.00 0.00 0.00 0.00
0.00 0.00 0.00 0.00 0.00 0.00 0.00 0.00 0.00 0.00 0.00 0.00 0.00 0.00 0.00 0.00 0.00 0.00 0.00 0.00 0.00 0.00 0.00 0.00 0.00 0.00 0.00 0.00 0.00 0.00 0.00 0.00 0.00 0.00 0.00 0.00 0.00 0.00 0.00 0.00 0.00 0.00 0.00
0.00 0.00 0.00 0.00 0.00 0.00 0.00 0.00 0.00 0.00 0.00 0.00 0.00 0.00 0.00 0.00 0.00 0.00 0.00 0.00 0.00 0.00 0.00 0.00 0.00 0.00 0.00 0.00 0.00 0.00 0.00 0.00 0.00 0.00 0.00 0.00 0.00 0.00 0.00 0.00 0.00 0.00 0.00
0.00 0.00 0.00 0.00 0.00 0.00 0.00 0.00 0.00 0.00 0.00 0.00 0.00 0.00 0.00 0.00 0.00 0.00 0.00 0.00 0.00 0.00 0.00 0.00 0.00 0.00 0.00 0.00 0.00 0.00 0.00 0.00 0.00 0.00 0.00 0.00 0.00 0.00 0.00 0.00 0.00 0.00 0.00
0.00 0.00 0.00 0.00 0.00 0.00 0.00 0.00 0.00 0.00 0.00 0.00 0.00 0.00 0.00 0.00 0.00 0.00 0.00 0.00 0.00 0.00 0.00 0.00 0.00 0.00 0.00 0.00 0.00 0.00 0.00 0.00 0.00 0.00 0.00 0.00 0.00 0.00 0.00 0.00 0.00 0.00 0.00
0.00 0.00 0.00 0.00 0.00 0.00 0.00 0.00 0.00 0.00 0.00 0.00 0.00 0.00 0.00 0.00 0.00 0.00 0.00 0.00 0.00 0.00 0.00 0.00 0.00 0.00 0.00 0.00 0.00 0.00 0.00 0.00 0.00 0.00 0.00 0.00 0.00 0.00 0.00 0.00 0.00 0.00 0.00
0.00 0.00 0.00 0.00 0.00 0.00 0.00 0.00 0.00 0.00 0.00 0.00 0.00 0.00 0.00 0.00 0.00 0.00 0.00 0.00 0.00 0.00 0.00 0.00 0.00 0.00 0.00 0.00 0.00 0.00 0.00 0.00 0.00 0.00 0.00 0.00 0.00 0.00 0.00 0.00 0.00 0.00 0.00
0.00 0.00 0.00 0.00 0.00 0.00 0.00 0.00 0.00 0.00 0.00 0.00 0.00 0.00 0.00 0.00 0.00 0.00 0.00 0.00 0.00 0.00 0.00 0.00 0.00 0.00 0.00 0.00 0.00 0.00 0.00 0.00 0.00 0.00 0.00 0.00 0.00 0.00 0.00 0.00 0.00 0.00 0.00
0.00 0.00 0.00 0.00 0.00 0.00 0.00 0.00 0.00 0.00 0.00 0.00 0.00 0.00 0.00 0.00 0.00 0.00 0.00 0.00 0.00 0.00 0.00 0.00 0.00 0.00 0.00 0.00 0.00 0.00 0.00 0.00 0.00 0.00 0.00 0.00 0.00 0.00 0.00 0.00 0.00 0.00 0.00
0.00 0.00 0.00 0.00 0.00 0.00 0.00 0.00 0.00 0.00 0.00 0.00 0.00 0.00 0.00 0.00 0.00 0.00 0.00 0.00 0.00 0.00 0.00 0.00 0.00 0.00 0.00 0.00 0.00 0.00 0.00 0.00 0.00 0.00 0.00 0.00 0.00 0.00 0.00 0.00 0.00 0.00 0.00
0.00 0.00 0.00 0.00 0.00 0.00 0.00 0.00 0.00 0.00 0.00 0.00 0.00 0.00 0.00 0.00 0.00 0.00 0.00 0.00 0.00 0.00 0.00 0.00 0.00 0.00 0.00 0.00 0.00 0.00 0.00 0.00 0.00 0.00 0.00 0.00 0.00 0.00 0.00 0.00 0.00 0.00 0.00
0.00 0.00 0.00 0.00 0.00 0.00 0.00 0.00 0.00 0.00 0.00 0.00 0.00 0.00 0.00 0.00 0.00 0.00 0.00 0.00 0.00 0.00 0.00 0.00 0.00 0.00 0.00 0.00 0.00 0.00 0.00 0.00 0.00 0.00 0.00 0.00 0.00 0.00 0.00 0.00 0.00 0.00 0.00
0.00 0.00 0.00 0.00 0.00 0.00 0.00 0.00 0.00 0.00 0.00 0.00 0.00 0.00 0.00 0.00 0.00 0.00 0.00 0.00 0.00 0.00 0.00 0.00 0.00 0.00 0.00 0.00 0.00 0.00 0.00 0.00 0.00 0.00 0.00 0.00 0.00 0.00 0.00 0.00 0.00 0.00 0.00
0.00 0.00 0.00 0.00 0.00 0.00 0.00 0.00 0.00 0.00 0.00 0.00 0.00 0.00 0.00 0.00 0.00 0.00 0.00 0.00 0.00 0.00 0.00 0.00 0.00 0.00 0.00 0.00 0.00 0.00 0.00 0.00 0.00 0.00 0.00 0.00 0.00 0.00 0.00 0.00 0.00 0.00 0.00
0.00 0.00 0.00 0.00 0.00 0.00 0.00 0.00 0.00 0.00 0.00 0.00 0.00 0.00 0.00 0.00 0.00 0.00 0.00 0.00 0.00 0.00 0.00 0.00 0.00 0.00 0.00 0.00 0.00 0.00 0.00 0.00 0.00 0.00 0.00 0.00 0.00 0.00 0.00 0.00 0.00 0.00 0.00
0.00 0.00 0.00 0.00 0.00 0.00 0.00 0.00 0.00 0.00 0.00 0.00 0.00 0.00 0.00 0.00 0.00 0.00 0.00 0.00 0.00 0.00 0.00 0.00 0.00 0.00 0.00 0.00 0.00 0.00 0.00 0.00 0.00 0.00 0.00 0.00 0.00 0.00 0.00 0.00 0.00 0.00 0.00
0.00 0.00 0.00 0.00 0.00 0.00 0.00 0.00 0.00 0.00 0.00 0.00 0.00 0.00 0.00 0.00 0.00 0.00 0.00 0.00 0.00 0.00 0.00 0.00 0.00 0.00 0.00 0.00 0.00 0.00 0.00 0.00 0.00 0.00 0.00 0.00 0.00 0.00 0.00 0.00 0.00 0.00 0.00
0.00 0.00 0.00 0.00 0.00 0.00 0.00 0.00 0.00 0.00 0.00 0.00 0.00 0.00 0.00 0.00 0.00 0.00 0.00 0.00 0.00 0.00 0.00 0.00 0.00 0.00 0.00 0.00 0.00 0.00 0.00 0.00 0.00 0.00 0.00 0.00 0.00 0.00 0.00 0.00 0.00 0.00 0.00
0.00 0.00 0.00 0.00 0.00 0.00 0.00 0.00 0.00 0.00 0.00 0.00 0.00 0.00 0.00 0.00 0.00 0.00 0.00 0.00 0.00 0.00 0.00 0.00 0.00 0.00 0.00 0.00 0.00 0.00 0.00 0.00 0.00 0.00 0.00 0.00 0.00 0.00 0.00 0.00 0.00 0.00 0.00
0.00 0.00 0.00 0.00 0.00 0.00 0.00 0.00 0.00 0.00 0.00 0.00 0.00 0.00 0.00 0.00 0.00 0.00 0.00 0.00 0.00 0.00 0.00 0.00 0.00 0.00 0.00 0.00 0.00 0.00 0.00 0.00 0.00 0.00 0.00 0.00 0.00 0.00 0.00 0.00 0.00 0.00 0.00
MSLP
1022.43 1022.74 1022.95 1023.16 1023.30 1023.53 1023.55 1023.64 1023.71 1023.68 1023.58 1023.49 1023.47 1023.57 1023.69 1023.76 1023.73 1023.69 1023.66 1023.70 1023.61 1023.60 1023.62 1023.73 1023.79 1023.73 1023.72 1023.69 1023.48 1023.30 1023.15 1023.13 1022.85 1021.93 1021.67 1021.37 1021.01 1020.52 1019.76 1019.09 1018.44 1017.72 1016.98
1022.26 1022.74 1023.22 1023.45 1023.84 1023.94 1024.01 1024.09 1024.02 1023.93 1023.67 1023.54 1023.60 1023.83 1024.03 1024.11 1024.17 1024.14 1024.20 1024.20 1024.15 1024.13 1024.23 1024.23 1024.28 1024.25 1024.19 1024.15 1024.08 1023.97 1023.76 1023.63 1023.59 1022.75 1022.01 1021.66 1021.43 1020.87 1020.31 1019.61 1018.66 1017.96 1017.42
1022.26 1022.74 1023.27 1023.59 1023.94 1024.15 1024.26 1024.25 1024.11 1024.03 1023.92 1023.56 1023.61 1023.94 1024.23 1024.37 1024.46 1024.51 1024.49 1024.48 1024.47 1024.53 1024.63 1024.72 1024.78 1024.81 1024.76 1024.66 1024.58 1024.48 1024.23 1024.04 1023.83 1023.35 1022.54 1021.90 1021.34 1020.77 1020.04 1019.58 1018.96 1018.10 1017.44
1022.11 1022.61 1023.19 1023.55 1023.87 1024.06 1024.10 1024.15 1024.06 1024.04 1024.06 1023.91 1023.82 1024.10 1024.33 1024.48 1024.57 1024.67 1024.73 1024.79 1024.81 1024.93 1025.01 1025.07 1025.19 1025.13 1024.93 1024.85 1024.67 1024.61 1024.38 1024.02 1023.82 1023.47 1022.89 1022.16 1021.71 1021.09 1020.67 1019.75 1018.43 1018.13 1017.12
1021.77 1022.38 1022.85 1023.27 1023.58 1023.75 1023.94 1024.07 1024.09 1024.12 1024.08 1024.07 1024.02 1024.23 1024.40 1024.45 1024.61 1024.75 1024.88 1024.99 1025.10 1025.27 1025.33 1025.35 1025.37 1025.49 1025.22 1024.88 1024.78 1024.62 1024.47 1024.05 1023.80 1023.44 1023.08 1022.52 1021.97 1021.21 1020.86 1020.63 1019.73 1018.18 1016.89
1021.43 1021.94 1022.56 1023.13 1023.49 1023.75 1024.02 1024.24 1024.36 1024.39 1024.34 1024.30 1024.30 1024.34 1024.47 1024.47 1024.51 1024.65 1024.92 1025.10 1025.20 1025.34 1025.44 1025.51 1025.48 1025.69 1025.71 1025.30 1025.04 1024.84 1024.58 1024.17 1023.90 1023.67 1023.23 1022.83 1022.55 1022.50 1021.76 1021.10 1020.28 1019.06 1016.86
1021.24 1021.86 1022.35 1022.87 1023.28 1023.65 1024.06 1024.40 1024.55 1024.63 1024.64 1024.55 1024.58 1024.55 1024.66 1024.56 1024.70 1024.96 1025.04 1025.25 1025.34 1025.59 1025.54 1025.59 1025.56 1025.65 1025.88 1025.57 1025.14 1024.99 1024.77 1024.36 1023.96 1024.01 1023.54 1023.60 1023.10 1022.80 1022.43 1021.50 1020.78 1019.96 1018.92
1020.84 1021.55 1022.17 1022.69 1023.21 1023.63 1023.98 1024.29 1024.63 1024.82 1024.92 1024.89 1024.90 1024.76 1024.68 1024.81 1024.82 1025.15 1025.29 1025.38 1025.32 1025.57 1025.54 1025.64 1025.75 1025.67 1025.54 1025.15 1024.93 1024.81 1024.70 1024.60 1024.30 1024.32 1023.97 1023.90 1023.53 1022.91 1022.76 1021.92 1021.16 1020.14 1019.00
1020.45 1021.21 1021.84 1022.37 1022.98 1023.46 1024.01 1024.52 1024.79 1024.98 1025.09 1025.11 1025.08 1025.08 1024.81 1024.87 1025.06 1025.16 1025.51 1025.56 1025.38 1025.72 1025.63 1025.73 1025.97 1025.90 1025.48 1025.28 1025.03 1024.96 1024.83 1024.47 1024.52 1024.69 1024.12 1023.94 1023.52 1023.09 1022.69 1021.92 1021.44 1020.50 1018.55
1019.96 1020.75 1021.59 1022.25 1022.74 1023.22 1023.65 1024.14 1024.64 1025.05 1025.17 1025.28 1025.30 1025.39 1025.37 1025.47 1025.08 1025.29 1025.72 1025.83 1025.57 1025.75 1025.79 1025.90 1025.89 1025.59 1025.45 1025.47 1025.06 1024.93 1025.20 1025.13 1024.88 1024.96 1024.66 1024.34 1023.99 1023.52 1023.13 1023.04 1022.38 1021.63 1020.78
1020.31 1021.00 1021.62 1022.26 1023.08 1024.05 1024.51 1024.60 1024.75 1025.00 1025.25 1025.31 1025.62 1025.82 1025.93 1025.88 1025.71 1025.60 1026.12 1026.08 1025.95 1025.95 1025.89 1025.91 1025.86 1025.49 1025.39 1025.57 1025.38 1025.48 1025.31 1025.19 1025.62 1025.76 1025.43 1024.91 1024.24 1023.86 1023.49 1023.18 1022.77 1022.28 1021.29
1020.41 1021.50 1022.49 1022.45 1022.32 1023.04 1024.07 1024.82 1025.27 1025.46 1025.61 1025.97 1025.93 1026.08 1026.41 1026.33 1025.99 1026.14 1026.27 1026.00 1026.00 1025.87 1025.97 1025.90 1025.83 1025.62 1025.75 1025.86 1025.99 1025.60 1025.57 1026.01 1026.15 1026.05 1025.68 1025.07 1024.51 1024.10 1023.75 1023.31 1022.76 1022.22 1021.69
1021.14 1022.01 1022.71 1023.24 1023.30 1023.60 1023.66 1024.17 1024.84 1025.03 1025.61 1025.85 1026.32 1026.44 1026.54 1026.69 1026.86 1026.69 1026.49 1026.01 1026.17 1025.88 1025.89 1026.07 1026.06 1026.20 1026.26 1026.38 1026.36 1026.25 1026.50 1026.55 1026.45 1026.24 1025.72 1025.11 1024.69 1024.41 1023.97 1023.40 1022.89 1022.22 1021.32
1021.57 1022.43 1023.04 1023.36 1023.48 1023.98 1024.34 1024.35 1024.60 1025.21 1025.63 1025.78 1026.37 1026.49 1026.70 1026.74 1026.82 1026.72 1026.45 1026.07 1026.12 1025.87 1026.61 1026.98 1026.82 1026.75 1026.73 1026.73 1027.07 1027.05 1027.03 1027.00 1026.84 1026.32 1025.76 1025.29 1025.02 1024.72 1024.22 1023.82 1022.98 1021.90 1020.83
1021.51 1022.22 1022.88 1023.35 1023.77 1024.30 1024.91 1025.17 1025.24 1025.50 1025.49 1025.39 1025.96 1026.20 1026.31 1026.62 1026.43 1026.15 1025.67 1025.63 1025.56 1025.88 1027.35 1027.43 1027.60 1027.49 1027.42 1027.29 1027.36 1027.39 1027.24 1027.03 1026.61 1026.17 1025.86 1025.67 1025.32 1025.14 1024.58 1023.97 1023.29 1022.24 1021.45
1021.78 1022.37 1022.78 1023.28 1023.72 1024.30 1024.98 1025.24 1025.55 1025.48 1025.34 1025.28 1025.27 1025.76 1025.88 1025.90 1025.73 1025.62 1025.42 1025.35 1025.31 1025.51 1027.27 1028.27 1028.42 1028.32 1027.98 1027.75 1027.60 1027.48 1027.23 1026.89 1026.56 1026.28 1026.20 1026.00 1025.69 1025.23 1024.67 1024.06 1023.35 1022.34 1021.16
1021.84 1022.48 1022.97 1023.44 1023.90 1024.38 1024.63 1025.43 1026.03 1026.26 1025.90 1025.82 1025.54 1025.77 1025.90 1025.73 1025.37 1025.40 1025.36 1025.18 1025.82 1026.80 1028.07 1028.61 1028.73 1028.48 1028.19 1027.92 1027.64 1027.46 1027.17 1026.98 1026.87 1026.60 1026.24 1025.95 1025.60 1025.22 1024.79 1024.02 1023.20 1022.12 1020.96
1022.44 1022.76 1023.01 1023.61 1024.00 1024.32 1024.70 1025.45 1025.89 1026.26 1026.31 1026.39 1026.49 1026.45 1026.14 1025.78 1025.83 1025.60 1025.27 1025.90 1026.78 1027.20 1028.30 1028.76 1028.60 1028.31 1028.02 1027.77 1027.52 1027.39 1027.26 1027.13 1026.87 1026.52 1026.13 1025.82 1025.45 1025.16 1024.52 1023.84 1023.08 1022.08 1020.90
1022.74 1023.16 1023.47 1023.82 1024.26 1024.48 1024.90 1025.58 1026.16 1026.59 1026.84 1027.18 1027.38 1027.03 1027.24 1026.66 1026.21 1025.67 1025.19 1026.52 1027.73 1028.05 1028.45 1028.48 1027.95 1027.71 1027.65 1027.47 1027.27 1027.06 1026.98 1026.81 1026.51 1026.22 1025.87 1025.49 1025.02 1024.72 1024.14 1023.54 1022.77 1021.88 1020.87
1022.90 1023.23 1023.79 1024.20 1024.67 1025.01 1025.52 1026.03 1026.47 1026.94 1027.40 1027.58 1027.63 1027.91 1027.93 1027.73 1027.13 1026.98 1026.80 1027.14 1027.74 1027.91 1027.72 1027.62 1027.12 1026.93 1026.95 1026.87 1026.57 1026.39 1026.40 1026.21 1025.86 1025.59 1025.25 1024.79 1024.32 1024.08 1023.63 1023.05 1022.38 1021.53 1020.44
1023.09 1023.58 1024.21 1024.79 1025.26 1025.69 1026.14 1026.59 1027.07 1027.45 1027.61 1027.58 1027.46 1027.40 1027.20 1027.29 1027.14 1027.37 1027.22 1027.19 1027.20 1027.05 1026.73 1026.54 1026.28 1026.04 1025.89 1025.74 1025.52 1025.52 1025.54 1025.21 1024.86 1024.57 1024.36 1024.01 1023.65 1023.37 1022.91 1022.35 1021.73 1020.94 1019.89
1023.30 1024.13 1024.78 1025.31 1025.89 1026.42 1026.79 1027.26 1027.53 1027.61 1027.68 1027.72 1027.44 1027.09 1026.75 1026.64 1026.70 1026.63 1026.41 1026.12 1025.79 1025.63 1025.37 1025.44 1025.21 1024.77 1024.61 1024.57 1024.37 1024.40 1024.36 1024.02 1023.71 1023.56 1023.45 1023.23 1022.88 1022.44 1022.04 1021.57 1020.93 1020.12 1019.14
1023.73 1024.60 1025.31 1025.95 1026.22 1026.59 1026.94 1027.39 1027.45 1027.49 1027.47 1027.44 1027.38 1027.10 1026.74 1026.61 1026.32 1025.96 1025.60 1025.19 1024.85 1024.59 1024.33 1024.44 1024.14 1023.62 1023.30 1023.24 1023.11 1023.06 1022.97 1022.53 1022.33 1022.40 1022.50 1022.36 1022.00 1021.52 1021.17 1020.72 1020.01 1019.20 1018.28
1024.01 1024.62 1025.37 1025.95 1026.40 1026.60 1026.79 1026.94 1027.01 1026.96 1026.90 1026.81 1026.71 1026.51 1026.13 1025.67 1025.22 1024.73 1024.37 1024.02 1023.74 1023.40 1023.08 1022.86 1022.64 1022.36 1022.04 1021.94 1021.78 1021.66 1021.51 1021.19 1021.12 1021.13 1021.40 1021.27 1020.89 1020.52 1020.06 1019.59 1018.92 1018.01 1017.15
1024.19 1024.75 1025.23 1025.67 1026.12 1026.26 1026.30 1026.28 1026.26 1026.17 1026.06 1025.94 1025.66 1025.35 1024.78 1024.40 1024.05 1023.59 1023.15 1022.82 1022.52 1022.23 1021.77 1021.47 1021.28 1021.01 1020.89 1020.69 1020.47 1020.24 1020.00 1019.72 1019.63 1019.62 1019.89 1019.97 1019.58 1019.19 1018.80 1018.41 1017.59 1016.74 1015.80
1023.96 1024.42 1024.87 1025.40 1025.63 1025.52 1025.59 1025.63 1025.40 1025.14 1024.89 1024.60 1024.31 1023.92 1023.54 1023.17 1022.72 1022.33 1021.87 1021.52 1021.26 1020.95 1020.61 1020.24 1019.87 1019.73 1019.50 1019.27 1019.00 1018.80 1018.63 1018.33 1018.21 1018.12 1018.18 1018.22 1017.94 1017.57 1017.26 1016.82 1015.93 1015.16 1014.29
Thickness
5535 5531 5529 5527 5525 5520 5518 5515 5512 5510 5508 5507 5504 5500 5495 5492 5489 5485 5481 5476 5473 5470 5466 5461 5457 5454 5450 5447 5446 5444 5442 5441 5442 5446 5446 5445 5446 5447 5449 5452 5455 5460 5464
5521 5518 5512 5508 5503 5500 5497 5495 5493 5492 5491 5489 5486 5481 5476 5472 5468 5465 5460 5456 5452 5449 5445 5442 5438 5436 5432 5429 5426 5423 5420 5419 5417 5423 5427 5427 5427 5429 5432 5435 5439 5441 5445
5506 5500 5495 5490 5486 5483 5480 5478 5477 5475 5473 5473 5469 5463 5457 5453 5449 5445 5441 5437 5434 5430 5427 5423 5418 5415 5412 5410 5407 5403 5402 5400 5398 5401 5406 5408 5411 5413 5418 5420 5424 5429 5432
5492 5487 5482 5476 5471 5467 5465 5463 5462 5459 5456 5454 5452 5445 5439 5435 5431 5426 5423 5419 5416 5412 5409 5405 5400 5397 5396 5392 5391 5387 5385 5384 5382 5382 5385 5389 5390 5392 5394 5402 5414 5413 5421
5478 5472 5466 5461 5456 5454 5451 5448 5445 5443 5440 5437 5434 5428 5423 5418 5414 5410 5406 5402 5398 5393 5390 5386 5383 5379 5377 5376 5373 5370 5367 5367 5366 5366 5366 5368 5369 5372 5373 5374 5382 5395 5406
5466 5461 5453 5447 5442 5437 5433 5429 5426 5423 5420 5417 5415 5411 5406 5402 5398 5394 5390 5385 5381 5377 5373 5368 5366 5361 5357 5357 5354 5351 5349 5348 5347 5346 5346 5346 5344 5341 5346 5350 5357 5366 5385
5452 5446 5440 5433 5428 5422 5416 5411 5407 5403 5401 5398 5396 5394 5389 5386 5382 5376 5373 5367 5364 5358 5356 5351 5348 5344 5340 5338 5337 5333 5329 5327 5327 5323 5324 5319 5319 5317 5318 5324 5329 5336 5343
5438 5431 5424 5417 5411 5405 5400 5394 5389 5385 5381 5379 5376 5375 5373 5369 5366 5360 5355 5352 5348 5343 5340 5336 5331 5329 5327 5325 5323 5319 5314 5307 5304 5299 5297 5294 5292 5292 5290 5296 5302 5311 5319
5423 5415 5408 5402 5395 5389 5382 5375 5370 5367 5364 5362 5360 5356 5355 5353 5349 5346 5338 5335 5333 5325 5323 5319 5314 5310 5309 5306 5304 5300 5296 5293 5284 5276 5274 5270 5269 5266 5263 5269 5269 5277 5294
5411 5402 5393 5386 5380 5374 5368 5361 5355 5350 5347 5344 5342 5338 5335 5331 5331 5329 5321 5317 5316 5310 5305 5299 5296 5295 5291 5285 5285 5281 5274 5269 5265 5260 5254 5248 5244 5241 5236 5231 5233 5236 5238
5390 5382 5375 5369 5361 5351 5346 5342 5338 5334 5330 5328 5324 5319 5313 5312 5310 5308 5301 5298 5296 5292 5288 5281 5278 5276 5271 5264 5260 5254 5251 5247 5238 5231 5227 5223 5221 5214 5207 5200 5195 5193 5197
5375 5363 5353 5351 5351 5344 5333 5325 5319 5315 5311 5306 5303 5300 5294 5290 5290 5287 5282 5280 5276 5274 5269 5263 5260 5257 5250 5242 5235 5232 5227 5218 5210 5204 5199 5196 5192 5185 5178 5173 5169 5163 5156
5353 5343 5336 5330 5327 5322 5320 5313 5306 5301 5294 5290 5283 5279 5275 5271 5267 5264 5262 5260 5256 5255 5249 5241 5238 5232 5226 5219 5212 5205 5197 5190 5182 5176 5172 5168 5162 5154 5148 5144 5141 5138 5137
5331 5322 5315 5310 5307 5301 5296 5294 5289 5282 5276 5272 5265 5261 5256 5252 5247 5244 5243 5241 5237 5237 5224 5217 5213 5208 5202 5195 5185 5176 5169 5161 5154 5150 5145 5139 5132 5127 5122 5116 5117 5118 5120
5314 5306 5298 5293 5288 5281 5273 5267 5265 5260 5258 5256 5249 5244 5239 5231 5230 5227 5228 5225 5220 5217 5201 5195 5187 5182 5176 5169 5160 5150 5141 5134 5130 5125 5120 5114 5109 5102 5097 5092 5090 5093 5091
5293 5288 5282 5276 5271 5264 5255 5249 5244 5241 5239 5238 5236 5228 5224 5219 5216 5213 5210 5207 5203 5197 5180 5167 5162 5157 5151 5143 5135 5127 5118 5113 5109 5105 5097 5091 5086 5082 5078 5074 5071 5073 5077
5276 5269 5263 5257 5251 5244 5240 5233 5225 5220 5219 5216 5215 5210 5206 5203 5201 5197 5192 5189 5179 5169 5152 5143 5138 5134 5127 5121 5114 5107 5102 5094 5088 5082 5079 5074 5070 5066 5060 5059 5057 5059 5062
5253 5249 5246 5239 5233 5229 5223 5215 5210 5204 5201 5198 5194 5191 5189 5186 5181 5177 5174 5166 5150 5145 5133 5122 5115 5111 5106 5101 5096 5090 5082 5075 5069 5066 5063 5059 5055 5050 5047 5044 5042 5042 5045
5233 5229 5226 5222 5216 5213 5208 5202 5195 5189 5184 5175 5170 5172 5168 5163 5159 5158 5156 5140 5127 5118 5112 5105 5102 5096 5089 5084 5079 5075 5067 5061 5056 5052 5049 5045 5043 5038 5035 5032 5030 5030 5030
5220 5216 5210 5206 5201 5197 5192 5186 5181 5174 5165 5158 5153 5147 5143 5140 5132 5129 5124 5116 5107 5102 5097 5091 5087 5081 5074 5069 5067 5062 5056 5050 5046 5042 5039 5036 5034 5028 5025 5022 5018 5018 5019
5207 5202 5196 5190 5185 5179 5173 5166 5159 5150 5145 5140 5136 5134 5134 5126 5120 5110 5102 5097 5093 5089 5084 5079 5075 5070 5065 5062 5058 5053 5047 5044 5039 5036 5032 5028 5024 5020 5014 5011 5008 5006 5007
5193 5185 5178 5172 5166 5158 5151 5146 5139 5133 5127 5123 5121 5116 5119 5110 5102 5096 5090 5086 5082 5078 5074 5070 5066 5063 5059 5055 5051 5046 5042 5038 5034 5029 5024 5019 5015 5010 5005 5000 4997 4996 4996
5177 5168 5161 5154 5149 5143 5136 5129 5123 5117 5113 5108 5103 5098 5093 5090 5087 5083 5079 5074 5070 5067 5064 5061 5058 5056 5053 5050 5046 5042 5038 5034 5030 5023 5017 5011 5005 5000 4994 4990 4988 4987 4986
5162 5156 5150 5141 5134 5126 5121 5116 5111 5106 5100 5095 5089 5085 5082 5078 5073 5070 5066 5063 5061 5059 5057 5055 5052 5050 5048 5044 5041 5036 5032 5028 5023 5017 5009 5003 4997 4990 4985 4982 4979 4979 4979
5146 5140 5133 5127 5119 5114 5107 5103 5097 5092 5087 5083 5079 5074 5071 5066 5062 5058 5056 5054 5053 5052 5051 5050 5047 5045 5042 5039 5035 5031 5027 5022 5017 5011 5003 4995 4989 4982 4977 4973 4972 4972 4972
5131 5124 5118 5109 5103 5098 5093 5088 5085 5081 5077 5073 5068 5063 5059 5055 5052 5050 5049 5049 5049 5048 5046 5044 5042 5039 5037 5034 5030 5026 5021 5015 5010 5003 4997 4989 4981 4975 4968 4965 4965 4967 4967